Probability
0 0 0 0 0 0 0 0 0 0 0 0 0 0 0 0 0 0 0 0 0 0 0 0 0 0 0 0 0 0 0 0 0 0 0 0 0 0 0 0 0 0 0
0 0 0 0 0 0 0 0 0 0 0 0 0 0 0 0 0 0 0 0 0 0 0 0 0 0 0 0 0 0 0 0 0 0 0 0 0 0 0 0 0 0 0
0 0 0 0 0 0 0 0 0 0 0 0 0 0 0 0 0 0 0 0 0 0 0 0 0 0 0 0 0 0 0 0 0 0 0 0 0 0 0 0 0 0 0
0 0 0 0 0 0 0 0 0 0 0 0 0 0 0 0 0 0 0 0 0 0 0 0 0 0 0 0 0 0 0 0 0 0 0 0 0 0 0 0 0 0 0
0 0 0 0 0 0 0 0 0 0 0 0 0 0 0 0 0 0 0 0 0 0 0 0 0 0 0 0 0 0 0 0 0 0 0 0 0 0 0 0 0 0 0
0 0 0 0 0 0 0 0 0 0 0 0 0 0 0 0 0 0 0 0 0 0 0 0 0 0 0 0 0 0 0 0 0 0 0 0 0 0 0 0 0 0 0
0 0 0 0 0 0 0 0 0 0 0 0 0 0 0 0 0 0 0 0 0 0 0 0 0 0 0 0 0 0 0 0 0 0 0 0 0 0 0 0 0 0 0
0 0 0 0 0 0 0 0 0 0 0 0 0 0 0 0 0 0 0 0 0 0 0 0 0 0 0 0 0 0 0 0 0 0 0 0 0 0 0 0 0 0 0
0 0 0 0 0 0 0 0 0 0 0 0 0 0 0 0 0 0 0 0 0 0 0 0 0 0 0 0 0 0 0 0 0 0 0 0 0 0 0 0 0 0 0
0 0 0 0 0 0 0 0 0 0 0 0 0 0 0 0 0 0 0 0 0 0 0 0 0 0 0 0 0 0 0 0 0 0 0 0 0 0 0 0 0 0 0
0 0 0 0 0 0 0 0 0 0 0 0 0 0 0 0 0 0 0 0 0 0 0 0 0 0 0 0 0 0 0 0 0 0 0 0 0 0 0 0 0 0 0
0 0 0 0 0 0 0 0 0 0 0 0 0 0 0 0 0 0 0 0 0 0 0 0 0 0 0 0 0 0 0 0 0 0 0 0 0 0 0 0 0 0 0
0 0 0 0 0 0 0 0 0 0 0 0 0 0 0 0 0 0 0 0 0 0 0 0 0 0 0 0 0 0 0 0 0 0 0 0 0 0 0 0 0 0 0
0 0 0 0 0 0 0 0 0 0 0 0 0 0 0 0 0 0 0 0 0 0 0 0 0 0 0 0 0 0 0 0 0 0 0 0 0 0 0 0 0 0 0
0 0 0 0 0 0 0 0 0 0 0 0 0 0 0 0 0 0 0 0 0 0 0 0 0 0 0 0 0 0 0 0 0 0 0 0 0 0 0 0 0 0 0
0 0 0 0 0 0 0 0 0 0 0 0 0 0 0 0 0 0 0 0 0 0 0 0 0 0 0 0 0 0 0 0 0 0 0 0 0 0 0 0 0 0 0
0 0 0 0 0 0 0 0 0 0 0 0 0 0 0 0 0 0 0 0 0 0 0 0 0 0 0 0 0 0 0 0 0 0 0 0 0 0 0 0 0 0 0
0 0 0 0 0 0 0 0 0 0 0 0 0 0 0 0 0 0 0 0 0 0 0 0 0 0 0 0 0 0 0 0 0 0 0 0 0 0 0 0 0 0 0
0 0 0 0 0 0 0 0 0 0 0 0 0 0 0 0 0 0 0 0 0 0 0 0 0 0 0 0 0 0 0 0 0 0 0 0 0 0 0 0 0 0 0
0 0 0 0 0 0 0 0 0 0 0 0 0 0 0 0 0 0 0 0 0 0 0 0 0 0 0 0 0 0 0 0 0 0 0 0 0 0 0 0 0 0 0
0 0 0 0 0 0 0 0 0 0 0 0 0 0 0 0 0 0 0 0 0 0 0 0 0 0 0 0 0 0 0 0 0 0 0 0 0 0 0 0 0 0 0
0 0 0 0 0 0 0 0 0 0 0 0 0 0 0 0 0 0 0 0 0 0 0 0 0 0 0 0 0 0 0 0 0 0 0 0 0 0 0 0 0 0 0
0 0 0 0 0 0 0 0 0 0 0 0 0 0 0 0 0 0 0 0 0 0 0 0 0 0 0 0 0 0 0 0 0 0 0 0 0 0 0 0 0 0 0
0 0 0 0 0 0 0 0 0 0 0 0 0 0 0 0 0 0 0 0 0 0 0 0 0 0 0 0 0 0 0 0 0 0 0 0 0 0 0 0 0 0 0
0 0 0 0 0 0 0 0 0 0 0 0 0 0 0 0 0 0 0 0 0 0 0 0 0 0 0 0 0 0 0 0 0 0 0 0 0 0 0 0 0 0 0
0 0 0 0 0 0 0 0 0 0 0 0 0 0 0 0 0 0 0 0 0 0 0 0 0 0 0 0 0 0 0 0 0 0 0 0 0 0 0 0 0 0 0
Height
5717 5715 5714 5712 5710 5709 5706 5704 5700 5696 5692 5686 5681 5675 5668 5662 5656 5650 5645 5641 5639 5639 5640 5641 5643 5646 5649 5653 5655 5658 5661 5664 5665 5666 5667 5666 5666 5665 5664 5663 5662 5661 5659
5708 5706 5705 5703 5701 5699 5696 5693 5689 5685 5679 5673 5667 5660 5653 5646 5639 5633 5628 5624 5622 5622 5623 5624 5627 5630 5633 5637 5640 5644 5647 5649 5651 5652 5653 5652 5651 5650 5649 5648 5647 5645 5642
5699 5697 5696 5694 5692 5689 5687 5683 5679 5674 5668 5662 5655 5647 5640 5632 5625 5619 5614 5611 5609 5608 5609 5610 5612 5615 5619 5623 5627 5630 5633 5635 5637 5639 5639 5639 5637 5636 5634 5632 5630 5627 5624
5690 5689 5687 5686 5683 5681 5678 5674 5670 5665 5658 5652 5644 5637 5630 5622 5615 5610 5605 5602 5599 5598 5598 5599 5601 5603 5607 5610 5614 5617 5620 5623 5625 5626 5626 5625 5623 5621 5619 5617 5614 5611 5607
5682 5681 5680 5678 5675 5673 5670 5666 5661 5656 5650 5643 5636 5629 5622 5615 5609 5603 5598 5595 5592 5590 5590 5591 5592 5594 5597 5600 5603 5606 5609 5611 5612 5613 5612 5611 5609 5607 5604 5601 5598 5594 5590
5675 5674 5672 5670 5668 5665 5662 5658 5654 5648 5643 5636 5630 5623 5617 5610 5604 5598 5593 5589 5587 5585 5584 5584 5585 5587 5590 5592 5595 5597 5599 5600 5601 5600 5600 5598 5595 5593 5589 5586 5582 5578 5574
5668 5667 5665 5663 5661 5658 5655 5651 5647 5642 5637 5631 5625 5618 5612 5606 5601 5595 5590 5586 5584 5582 5581 5581 5581 5582 5584 5585 5587 5589 5590 5590 5590 5589 5587 5585 5582 5579 5575 5571 5566 5561 5556
5662 5661 5659 5657 5654 5651 5648 5645 5641 5636 5631 5626 5620 5615 5609 5603 5598 5594 5589 5586 5583 5581 5580 5579 5579 5579 5580 5581 5581 5582 5582 5581 5580 5578 5576 5572 5568 5564 5560 5555 5550 5544 5538
5656 5655 5653 5651 5648 5645 5642 5639 5635 5631 5626 5621 5616 5611 5606 5601 5597 5593 5589 5586 5583 5581 5579 5578 5577 5577 5577 5576 5576 5575 5574 5572 5570 5566 5563 5559 5555 5550 5545 5539 5533 5527 5520
5651 5649 5647 5645 5643 5640 5637 5633 5630 5626 5621 5617 5613 5608 5604 5600 5595 5592 5588 5585 5583 5580 5578 5577 5575 5574 5572 5571 5569 5567 5565 5563 5559 5555 5551 5546 5540 5534 5528 5522 5516 5509 5502
5646 5644 5642 5640 5638 5635 5632 5628 5625 5621 5617 5613 5609 5605 5601 5597 5594 5590 5587 5584 5581 5578 5576 5574 5571 5569 5567 5565 5562 5559 5556 5552 5548 5543 5537 5532 5525 5519 5512 5505 5498 5491 5484
5641 5639 5637 5635 5633 5630 5627 5624 5620 5617 5613 5609 5605 5602 5598 5595 5591 5587 5584 5581 5578 5575 5572 5569 5566 5563 5560 5557 5553 5549 5545 5540 5535 5529 5523 5516 5510 5502 5495 5488 5481 5474 5468
5636 5634 5632 5630 5628 5625 5622 5619 5616 5612 5609 5605 5602 5598 5595 5591 5588 5584 5581 5577 5574 5570 5567 5563 5560 5556 5552 5548 5543 5538 5533 5528 5522 5515 5508 5501 5494 5486 5479 5472 5466 5460 5455
5631 5629 5627 5625 5623 5620 5617 5614 5611 5608 5605 5601 5598 5594 5591 5587 5584 5580 5576 5572 5568 5564 5560 5556 5552 5548 5543 5538 5533 5527 5521 5515 5508 5501 5494 5486 5479 5471 5465 5459 5453 5448 5443
5625 5624 5622 5620 5617 5615 5612 5609 5606 5603 5600 5597 5593 5590 5586 5582 5578 5575 5570 5566 5562 5558 5553 5549 5544 5539 5534 5528 5522 5516 5509 5502 5495 5487 5479 5471 5464 5458 5452 5446 5442 5437 5433
5619 5618 5616 5614 5612 5609 5607 5604 5601 5598 5594 5591 5587 5584 5580 5576 5572 5568 5564 5559 5555 5550 5545 5540 5535 5529 5523 5517 5510 5503 5496 5488 5481 5473 5465 5458 5451 5445 5439 5434 5430 5425 5421
5613 5611 5610 5608 5606 5603 5601 5598 5595 5592 5588 5585 5581 5577 5574 5569 5565 5561 5556 5551 5546 5541 5536 5531 5525 5519 5512 5506 5499 5491 5483 5475 5467 5459 5452 5445 5439 5433 5427 5422 5417 5413 5408
5606 5605 5603 5601 5599 5597 5594 5591 5588 5585 5582 5578 5575 5571 5567 5562 5558 5553 5548 5543 5538 5533 5527 5521 5515 5508 5501 5494 5487 5479 5470 5462 5454 5446 5439 5432 5426 5420 5414 5409 5404 5399 5395
5599 5597 5596 5594 5592 5589 5587 5584 5581 5578 5575 5571 5568 5564 5559 5555 5550 5545 5540 5535 5529 5523 5517 5511 5504 5497 5490 5482 5474 5466 5457 5449 5441 5433 5426 5419 5412 5407 5401 5396 5390 5385 5381
5591 5590 5588 5587 5584 5582 5580 5577 5574 5571 5567 5564 5560 5556 5552 5547 5542 5537 5532 5526 5520 5514 5508 5501 5494 5486 5478 5470 5461 5453 5444 5435 5427 5420 5412 5406 5399 5393 5388 5382 5377 5372 5367
5583 5582 5581 5579 5577 5575 5572 5569 5566 5563 5560 5556 5552 5548 5544 5539 5534 5529 5523 5517 5511 5505 5498 5490 5483 5475 5466 5458 5449 5440 5431 5422 5414 5407 5399 5393 5386 5380 5374 5368 5363 5358 5353
5575 5574 5572 5571 5569 5567 5564 5561 5558 5555 5552 5548 5544 5540 5535 5531 5525 5520 5514 5508 5502 5495 5487 5480 5471 5463 5454 5445 5436 5427 5418 5409 5401 5394 5387 5380 5373 5367 5361 5355 5350 5345 5340
5566 5565 5564 5562 5561 5558 5556 5553 5550 5547 5543 5540 5536 5532 5527 5522 5517 5511 5505 5499 5492 5485 5477 5469 5460 5451 5442 5433 5423 5414 5406 5397 5389 5381 5375 5368 5361 5354 5348 5343 5337 5332 5328
5557 5557 5555 5554 5552 5550 5547 5544 5541 5538 5535 5531 5527 5523 5518 5513 5508 5502 5496 5489 5482 5474 5466 5458 5449 5439 5430 5420 5411 5402 5393 5385 5377 5370 5363 5356 5349 5343 5337 5331 5326 5321 5316
5549 5548 5547 5545 5543 5541 5538 5536 5533 5530 5526 5523 5519 5514 5509 5504 5499 5493 5486 5479 5472 5464 5456 5447 5438 5428 5419 5409 5400 5391 5382 5374 5367 5360 5353 5346 5340 5333 5327 5322 5316 5311 5306
5539 5539 5537 5536 5534 5532 5529 5527 5524 5521 5518 5514 5510 5505 5500 5495 5489 5483 5477 5469 5462 5453 5445 5436 5427 5418 5408 5399 5390 5381 5373 5365 5357 5350 5343 5337 5331 5324 5318 5312 5307 5302 5297
Wind_Speed
35 35 36 37 37 38 39 40 41 44 46 49 51 52 54 56 58 58 59 59 60 60 60 60 60 60 59 58 58 59 58 58 58 58 58 58 59 57 56 56 56 56 58
33 34 34 35 35 36 37 38 40 43 45 46 48 49 51 52 52 51 50 49 50 52 53 54 55 56 56 56 56 57 57 58 59 59 59 59 60 59 60 59 60 61 62
32 32 32 32 33 34 34 36 39 40 41 43 44 45 45 45 44 42 41 41 42 43 45 47 48 50 52 53 54 54 55 56 58 59 59 59 60 61 61 61 62 62 63
29 30 30 31 31 32 32 34 36 37 38 39 40 40 39 38 37 35 35 36 36 37 38 40 42 43 46 48 49 50 51 53 54 55 56 57 60 61 61 62 64 65 65
27 28 28 29 30 31 32 33 34 35 35 36 36 35 34 33 32 31 30 30 30 30 31 33 34 36 39 41 42 44 46 47 49 52 54 55 57 58 59 60 62 62 63
26 27 28 28 29 30 31 31 31 32 32 33 32 31 29 28 28 26 25 25 24 24 25 26 28 29 31 33 35 39 41 44 46 48 51 52 54 56 57 59 60 61 62
25 26 26 27 28 29 29 29 29 29 30 29 28 26 26 25 24 22 21 20 19 18 19 20 21 23 26 28 31 34 36 39 42 45 48 50 52 53 55 56 57 59 61
23 24 25 26 26 26 26 26 26 26 26 26 25 24 23 21 20 20 18 16 13 12 13 15 16 19 21 24 27 31 34 36 39 42 44 47 49 51 53 55 58 61 63
21 22 22 23 23 23 23 24 24 24 24 23 22 22 21 19 18 18 17 15 13 12 13 14 15 17 20 23 26 28 31 34 37 40 42 45 49 52 55 58 60 61 63
19 19 20 20 21 21 21 22 22 22 22 21 20 20 19 19 18 17 16 15 14 14 14 16 17 18 21 23 26 29 32 35 38 42 45 48 51 54 57 59 60 61 61
18 18 19 19 19 20 20 21 21 21 20 20 20 20 19 19 18 17 16 16 16 16 17 19 20 22 24 26 29 32 35 38 41 45 48 51 54 56 58 59 58 57 56
17 18 18 19 19 19 20 20 20 20 20 20 20 20 19 19 19 19 19 19 19 20 21 22 24 26 29 31 34 37 40 42 45 48 51 53 55 56 57 56 54 52 49
18 18 19 19 19 20 20 21 21 21 21 21 20 20 20 20 20 20 21 22 22 24 25 27 28 30 33 35 38 40 43 46 48 51 53 54 55 55 54 52 48 45 42
19 19 20 20 20 21 21 21 22 21 21 21 21 21 21 21 22 23 24 25 26 28 29 31 32 34 37 39 41 43 46 48 50 52 53 54 54 52 49 46 43 41 40
20 21 21 22 22 22 22 22 23 23 23 22 22 23 23 24 24 25 27 28 29 30 32 34 36 37 39 41 43 45 47 50 51 52 52 52 50 47 45 42 41 39 38
22 22 23 23 23 23 24 24 24 24 24 24 24 25 25 26 27 28 30 31 32 33 35 37 38 40 42 43 46 48 49 51 51 51 50 48 46 44 43 42 41 40 39
23 24 24 24 24 25 25 26 26 26 26 27 27 27 28 29 30 31 32 34 35 36 38 39 41 42 44 46 47 49 50 51 50 50 48 46 45 43 43 42 42 41 41
25 25 25 25 26 26 27 27 27 28 28 28 29 29 30 31 32 33 35 36 37 38 39 41 42 44 46 47 49 50 50 50 49 48 47 46 44 43 43 43 43 43 42
26 26 26 26 27 27 28 28 29 29 29 29 30 31 32 33 34 35 36 37 38 40 41 43 44 46 48 49 50 51 51 50 49 48 46 45 45 44 43 43 43 44 44
27 27 27 27 28 28 28 29 29 30 30 31 31 32 33 34 35 36 37 39 40 41 43 44 46 48 49 51 51 52 51 50 49 47 46 45 45 44 44 44 44 44 43
27 27 28 28 29 29 29 30 30 31 31 31 32 33 34 35 36 37 38 40 41 43 45 47 48 50 51 52 52 52 51 50 48 46 45 45 44 44 44 44 44 43 43
28 28 29 29 30 30 30 31 31 31 32 32 33 34 34 36 37 38 39 41 43 45 47 49 50 51 52 53 53 52 51 49 47 46 45 44 44 44 43 43 43 42 42
29 29 29 30 30 31 31 32 32 32 32 33 33 34 35 37 38 39 40 42 45 46 48 50 51 52 53 53 53 51 50 48 46 45 43 43 43 42 41 41 41 40 40
31 31 31 31 31 31 32 32 32 32 32 33 34 35 36 37 39 40 42 44 46 48 50 51 52 53 53 53 52 51 49 47 45 43 42 41 40 40 39 39 39 39 38
31 31 32 32 32 32 32 32 32 32 33 34 34 36 37 38 40 41 43 46 48 49 50 51 53 53 53 52 51 49 48 46 44 42 41 39 38 37 37 37 36 36 36
31 32 33 32 32 32 31 32 32 33 33 34 35 37 38 39 41 43 45 47 48 49 50 52 53 53 52 50 49 48 46 44 42 41 40 38 36 35 35 34 33 32 32
Wind_Direction
275 278 281 283 285 287 289 291 293 295 296 297 296 295 294 291 289 285 281 277 272 269 266 263 261 259 258 258 258 258 260 262 264 267 270 273 274 277 279 281 282 282 283
279 281 283 285 287 290 291 293 296 298 300 301 300 300 298 296 294 289 285 280 275 271 267 263 260 258 256 256 256 257 259 261 263 266 269 272 275 279 281 282 282 283 284
281 283 284 286 289 292 293 296 300 302 304 305 305 305 304 302 300 295 289 284 279 274 269 265 262 258 255 254 255 256 258 261 264 267 270 273 277 279 281 282 282 283 285
282 284 285 288 290 292 295 300 303 305 308 309 310 310 310 309 306 301 294 289 284 277 272 267 263 259 256 254 255 257 259 262 265 268 271 273 276 279 280 281 282 284 285
283 285 287 289 290 293 297 302 306 309 311 314 315 314 316 316 313 309 303 295 288 280 272 266 263 260 256 255 256 257 259 262 266 268 271 274 277 279 281 282 284 285 287
282 285 288 290 292 295 298 302 307 311 315 318 319 318 318 321 320 316 311 301 292 283 274 269 265 263 260 258 258 259 262 265 267 269 272 275 278 280 282 284 285 287 288
285 287 288 291 293 296 299 302 308 312 316 319 322 323 323 323 324 323 319 310 297 286 277 272 272 266 264 261 260 261 264 268 271 274 277 279 281 283 285 287 288 290 291
289 290 291 293 295 298 301 305 309 314 317 319 323 326 328 328 328 327 326 324 313 299 288 282 277 271 269 271 270 270 272 275 278 280 281 284 286 288 290 291 292 293 294
294 293 295 297 298 300 303 307 311 315 319 321 325 330 332 333 332 331 330 327 323 314 308 301 293 287 285 282 281 281 282 284 286 288 289 290 292 293 294 295 295 296 296
296 297 299 301 302 304 307 311 314 317 320 323 326 330 332 334 335 334 333 332 329 322 316 311 305 301 297 295 294 293 293 294 294 294 295 295 296 297 297 297 298 298 298
297 299 301 303 304 307 311 313 315 318 321 324 326 328 329 331 332 331 330 328 325 322 318 314 311 307 305 303 301 300 300 299 299 299 298 299 299 299 299 299 300 299 299
298 299 300 302 305 308 311 315 317 319 321 322 323 325 326 326 326 326 325 323 321 319 317 314 312 310 308 307 305 304 303 302 302 302 302 302 302 302 301 301 300 300 299
297 298 299 301 304 308 312 314 316 318 319 319 319 320 320 320 321 321 321 320 318 317 315 314 312 311 310 309 307 306 305 305 305 305 304 304 304 303 302 301 301 300 300
295 296 297 299 302 306 309 311 313 314 314 315 314 315 315 316 317 318 318 317 316 315 314 313 312 312 311 310 308 308 307 307 307 306 306 306 305 303 302 301 300 300 300
293 295 296 297 299 302 306 308 309 310 311 311 312 312 313 314 314 315 315 315 314 313 313 312 312 312 311 311 311 310 310 309 309 308 307 306 305 303 301 300 299 298 298
291 293 295 296 297 299 303 305 307 307 308 309 310 311 312 313 313 313 314 314 314 314 314 313 313 313 312 312 312 312 311 311 310 309 308 306 304 302 300 298 297 297 297
289 291 293 295 296 297 300 302 304 306 307 308 309 310 311 313 313 314 314 315 315 315 315 314 314 314 314 314 314 313 313 312 311 309 307 305 302 300 298 296 296 295 296
286 288 291 293 295 296 298 300 302 304 305 306 308 310 311 312 313 314 315 315 315 316 316 315 315 315 315 315 315 315 314 312 311 309 307 304 302 299 298 296 295 295 295
284 286 288 291 293 295 297 299 302 303 304 305 307 309 310 312 313 315 315 315 316 316 317 316 317 317 317 317 317 316 315 313 312 309 307 304 302 300 298 297 296 295 294
282 284 286 290 292 295 297 299 302 303 304 305 307 309 310 312 313 315 315 316 316 317 317 318 318 318 318 318 318 317 316 314 312 310 307 305 303 301 299 298 297 296 295
280 282 285 288 292 295 297 299 301 303 304 305 307 309 311 312 314 315 316 316 317 318 319 319 319 319 319 319 318 318 316 315 313 311 308 306 304 302 301 300 299 297 296
278 281 284 287 290 293 296 297 299 301 303 305 306 308 310 312 314 315 316 318 318 319 320 320 320 320 320 320 320 319 318 316 314 312 310 308 306 304 302 301 300 299 298
276 279 283 286 290 293 295 296 298 300 302 304 306 308 310 312 314 315 317 318 319 320 320 321 321 321 322 322 321 320 319 318 316 314 312 311 309 307 305 303 303 302 301
275 278 281 285 289 292 294 295 296 299 301 303 305 308 310 312 313 315 317 319 320 320 321 322 322 322 323 323 322 321 320 319 318 316 315 314 312 310 308 307 306 305 304
274 277 281 285 288 291 293 293 295 298 300 302 305 307 310 312 313 315 317 319 320 321 322 323 323 323 324 323 323 323 322 321 320 319 319 317 316 314 312 311 309 308 306
274 276 280 283 287 290 291 293 295 298 300 302 305 307 309 311 313 315 317 319 321 322 323 324 324 325 325 325 325 324 324 323 322 322 322 321 320 318 317 316 315 313 312